Regional Weather Roundup
Issued by NWS

Home | Current Version | Previous Version | Graphics & Text | Print | Product List | Glossary On
Versions: 1 2 3 4 5 6 7 8 9 10 11 12 13 14 15 16 17 18 19 20 21 22 23 24 25 26 27 28 29 30 31 32 33 34 35 36 37 38 39 40 41 42 43 44 45 46 47 48 49 50
000
ASUS43 KMPX 221201
RWRMN
WEATHER ROUNDUP FOR MINNESOTA
NATIONAL WEATHER SERVICE TWIN CITIES/CHANHASSEN MN
700 AM CDT MON MAY 22 2017


NOTE: "FAIR" INDICATES FEW OR NO CLOUDS BELOW 12,000 FEET WITH NO
SIGNIFICANT WEATHER AND/OR OBSTRUCTIONS TO VISIBILITY. N/A MEANS
CURRENT SKY AND/OR WEATHER CONDITIONS ARE NOT AVAILABLE.

MNZ060>063-068>070-221300-
   Twin Cities Metro

CITY           SKY/WX    TMP DP  RH WIND       PRES   REMARKS
TWIN CITIES    MOSUNNY   47  41  80 SW8       29.87S
6HR MIN TEMP:  45; 6HR MAX TEMP:  47;

ST PAUL        MOSUNNY   47  43  86 SW5       29.88S
CRYSTAL        PTSUNNY   47  40  76 SW6       29.85S
BLAINE         MOSUNNY   48  45  87 SW7       29.85F
LAKEVILLE      SUNNY     45  45 100 CALM      29.88S
EDEN PRAIRIE   SUNNY     46  42  86 SW6       29.86F
6HR MIN TEMP:  44; 6HR MAX TEMP:  47;

SOUTH ST PAUL  MOSUNNY   47  42  83 SW6       29.87S
LAKE ELMO      FAIR      46  43  87 SW6       29.87S
$$
MNZ001>005-007-008-013>017-022>024-027-028-221300-
   Northwest Minnesota

CITY           SKY/WX    TMP DP  RH WIND       PRES   REMARKS
BEMIDJI        DRIZZLE   43  43  98 NW8       29.78S
HALLOCK        CLOUDY    48  46  93 N14       29.82R
ROSEAU         CLOUDY    46  43  87 NW7       29.78S
WARROAD        CLOUDY    45  41  87 NW8       29.77S
CROOKSTON      CLOUDY    46  45  93 NW9       29.82F
FOSSTON        CLOUDY    43  43 100 W6        29.81F
DETROIT LAKES  CLOUDY    43  41  93 NW8       29.84S
MOORHEAD       CLOUDY    45  41  87 NW10      29.87R
PARK RAPIDS    CLOUDY    45  41  86 W12       29.80R
MAHNOMEN       CLOUDY    43  42  95 W9        29.82S
$$
MNZ006-009>011-018-025>026-221300-
   North Central Minnesota

CITY           SKY/WX    TMP DP  RH WIND       PRES   REMARKS
BAUDETTE       CLOUDY    45  42  89 W8        29.75R
FLAG ISLAND    CLOUDY    45  43  93 NW17      29.75S
INTL FALLS     CLOUDY    44  42  93 W6        29.72S
6HR MIN TEMP:  44; 6HR MAX TEMP:  46; 6HR PCP:  0.01;

WASKISH        CLOUDY    46  45  93 NW14      29.76S
BIG FORK       CLOUDY    45  43  93 CALM      29.74S
LONGVILLE      DRIZZLE   45  43  93 W7        29.77S
GRAND RAPIDS   CLOUDY    45  43  93 W5        29.77S
CRANE LAKE     CLOUDY    45  43  93 W3        29.72F
ORR            CLOUDY    45  41  87 W5        29.70S
COOK           LGT RAIN  45  43  93 W8        29.72S
WALKER         DRIZZLE   43  42  95 W9        29.78R
$$
MNZ012-019>021-037-221300-
   Northeast Minnesota

CITY           SKY/WX    TMP DP  RH WIND       PRES   REMARKS
DULUTH         CLOUDY    45  43  93 W12       29.74F
6HR MIN TEMP:  45; 6HR MAX TEMP:  45; 6HR PCP: TRACE;

ELY            CLOUDY    43  43 100 W7        29.71R FOG
HIBBING        CLOUDY    44  42  93 W5        29.73F
EVELETH        CLOUDY    45  41  87 W7        29.74S
DULUTH HARBOR  CLOUDY    46  45  93 SW10      29.77F
TWO HARBORS    CLOUDY    48  43  81 W6        29.72F
SILVER BAY     CLOUDY    46  45  93 SW3       29.71S
GRAND MARAIS     N/A     40  39  97 W12       29.71R
G MARAIS ARPRT CLOUDY    43  39  87 SW5       29.69S
$$
MNZ029>031-032-039>041-046>048-054>057-064-221300-
   West Central Minnesota

CITY           SKY/WX    TMP DP  RH WIND       PRES   REMARKS
FERGUS FALLS   PTSUNNY   39  39 100 CALM      29.87R
WHEATON        MOSUNNY   43  39  87 CALM      29.91R
MORRIS         SUNNY     41  39  93 W6        29.87S
ALEXANDRIA     MOSUNNY   43  41  93 W8        29.87R
ELBOW LAKE     FAIR      40  40  98 CALM      29.88R
WADENA         CLOUDY    43  41  93 W8        29.83S
GLENWOOD       CLOUDY    45  43  93 W7        29.87S
APPLETON       SUNNY     41  39  93 NW5       29.88S
ORTONVILLE     SUNNY     41  39  93 N6        29.88S
MADISON        SUNNY     43  43 100 NE3       29.89S
WILLMAR        FAIR      43  41  93 CALM      29.89R
$$
MNZ033>034-036-042>043-049>051-058-059-221300-
   Central Minnesota

CITY           SKY/WX    TMP DP  RH WIND       PRES   REMARKS
ST CLOUD       SUNNY     44  42  93 W6        29.84S
6HR MIN TEMP:  39; 6HR MAX TEMP:  44;

SAUK CENTRE    FAIR      42  40  93 W7        29.85S
PAYNESVILLE    PTSUNNY   43  43 100 W5        29.87S
AITKIN         CLOUDY    45  41  87 W6        29.77F
PINE RIVER     CLOUDY    45  41  87 W10G16    29.82F
BRAINERD       CLOUDY    44  42  93 W10       29.81S
STAPLES        CLOUDY    45  41  87 W10       29.82S
LONG PRAIRIE   FAIR      43  39  87 SW7       29.85S
LITTLE FALLS   SUNNY     43  39  87 W6        29.84S
LITCHFIELD     SUNNY     46  43  87 W5        29.87S
BUFFALO        SUNNY     45  41  85 SW3       29.87S
MAPLE LAKE     SUNNY     46  43  89 SW5       29.87S
HUTCHINSON     CLOUDY    41  41  99 CALM      29.88S
$$
MNZ037-044-045-052-053-221300-
   East Central Minnesota

CITY           SKY/WX    TMP DP  RH WIND       PRES   REMARKS
PRINCETON      SUNNY     45  43  93 SW5       29.84F
MORA           SUNNY     41  39  93 SW3       29.84S
CAMBRIDGE      SUNNY     46  43  87 CALM      29.82S
RUSH CITY      SUNNY     44  42  92 SW5       29.84S
MOOSE LAKE     CLOUDY    45  41  87 W3        29.77S
HINCKLEY       PTSUNNY   45  43  93 SW6       29.81S
CLOQUET        CLOUDY    45  41  87 SW7       29.76S
MCGREGOR       CLOUDY    45  43  93 SW6       29.78F
$$
MNZ071>073-080-081-089-090-097-098-221300-
   Southwest Minnesota

CITY           SKY/WX    TMP DP  RH WIND       PRES   REMARKS
MONTEVIDEO     SUNNY     39  37  93 NW3       29.89R
CANBY          MOSUNNY   42  41  97 CALM      29.90S
MARSHALL       SUNNY     44  41  89 N9        29.88S
REDWOOD FALLS  SUNNY     43  40  89 CALM      29.88R
OLIVIA         SUNNY     41  37  87 CALM      29.88R
PIPESTONE      SUNNY     45  39  81 W6        29.88R
WINDOM         MOSUNNY   46  43  87 S6        29.88S
WORTHINGTON    PTSUNNY   48  43  82 SW9       29.89R
JACKSON        MOSUNNY   46  43  87 SW8       29.89S
TRACY          MOSUNNY   51  44  78 W8        29.88R
SLAYTON        SUNNY     46  41  82 W9        29.89S
$$
MNZ065>067-074>077-082>085-091>093-221300-
   South Central Minnesota

CITY           SKY/WX    TMP DP  RH WIND       PRES   REMARKS
MANKATO          N/A     44  41  89 S3        29.89S
NEW ULM        SUNNY     43  39  87 CALM      29.88S
ST JAMES       MOSUNNY   43  41  93 CALM      29.89S
FAIRMONT       CLOUDY    49  43  80 SW8       29.89S
GLENCOE        SUNNY     44  43  98 CALM      29.86F
FARIBAULT      SUNNY     45  43  93 CALM      29.89S
OWATONNA       SUNNY     46  41  81 S7        29.89S
WASECA         SUNNY     41  39  93 CALM      29.90S
ALBERT LEA     CLOUDY    48  45  87 SW9       29.89S
$$
MNZ078>079-086>088-094>096-221300-
   Southeast Minnesota

CITY           SKY/WX    TMP DP  RH WIND       PRES   REMARKS
ROCHESTER      SUNNY     44  41  89 S6        29.91R
6HR MIN TEMP:  41; 6HR MAX TEMP:  45;

STANTON        SUNNY     46  42  84 S5        29.87F
DODGE CENTER   SUNNY     45  41  87 S3        29.90S
WINONA         MOSUNNY   48  41  76 CALM      29.92R
AUSTIN         CLOUDY    45  41  87 S5        29.89F
PRESTON        SUNNY     42  39  90 CALM      29.92S
$$
ABBREVIATIONS USED IN REMARKS
   TC - TEMPERATURES IN CELSIUS
  WCI - WIND CHILL INDEX
   HX - HEAT INDEX
  VSB - VISIBILITY
$$




USA.gov is the U.S. government's official web portal to all federal, state and local government web resources and services.